WS Maaseik 1 Meer informatie WS Maaseik 1


WS Maaseik 2 Meer informatie WS Maaseik 2


Regen radar Meer informatie rain snow radar


Bezoek onze andere website:

Vorige versie
weerstation Maaseik


Bezoek ook eens deze sites:

Weerstation Geleen



We konden geen weer-waarchuwingen ophalen. Ga rechtstreeks naar de Meteoalarm site : www.meteoalarm.eu en controleer daar .

15 daagse weersverwachting Charlottenlund (DK)

  • Overzicht
  • Per uur
  • 15 dagen
  • Extra
  • Vergelijk
  • Kaarten
  • Dagkaart
  • Meer »
  • Info
  • Statistieken
  • Directe link
    Temp 6h Neerslag Wind  
 04:34     21:55    Daglengte: 17:21 Vandaag
14:00
22°
 
8
20:00
20°
 
4
 04:35     21:55    Daglengte: 17:20 Morgen
02:00
17°
 
2
08:00
17°
 
4
14:00
20°
 
5
20:00
19°
 
5
 04:36     21:54    Daglengte: 17:18 Dinsdag 05 Jul
02:00
15°
 
6
08:00
16°
 
6
14:00
19°
 
6
20:00
18°
 
6
 04:37     21:53    Daglengte: 17:16 Woensdag 06 Jul
02:00
13°
 
4
Locatie info
Region: Hovedstaden
Latitude: 55.7533°N
Longitude: 12.5722°E
11 masl
Postcode: 2920
Temp/Neerslag /Baro Onweer/Dauwpunt
    Temp Baro 1h Neerslag Dauwpunt Wind UV Bewolking  
 04:34     21:55    Daglengte: 17:21 Vandaag
09:00
19°
1018.1 hPa   14.7°
7
Windvlaag: 10.1 m/s
57%
10:00
20°
1017.9 hPa   14.3°
7
Windvlaag: 10.7 m/s
42%
11:00
20°
1017.8 hPa   13.7°
7
Windvlaag: 10.3 m/s
73%
12:00
21°
1017.7 hPa   12.9°
7
Windvlaag: 10.6 m/s
62%
13:00
22°
1017.2 hPa   12.1°
8
Windvlaag: 11.1 m/s
61%
14:00
22°
1016.9 hPa   13.0°
8
Windvlaag: 11.4 m/s
14%
15:00
22°
1016.4 hPa   13.4°
7
Windvlaag: 11.4 m/s
29%
16:00
22°
1016.1 hPa
25%
13.4°
7
Windvlaag: 11.5 m/s
8%
17:00
22°
1015.7 hPa
14%
13.7°
7
Windvlaag: 11 m/s
28%
18:00
22°
1015.5 hPa
20%
14.4°
6
Windvlaag: 10.9 m/s
33%
19:00
21°
1015.5 hPa
75%
15.1°
5
Windvlaag: 10.6 m/s
16%
20:00
20°
1015.3 hPa
29%
15.5°
4
Windvlaag: 10.3 m/s
33%
21:00
20°
1015.4 hPa
65%
16.3°
2
Windvlaag: 10 m/s
70%
22:00
19°
1015.3 hPa
78%
16.2°
3
Windvlaag: 5.9 m/s
34%
23:00
18°
1015.3 hPa
74%
16.3°
2
Windvlaag: 5.6 m/s
7%
 04:35     21:55    Daglengte: 17:20 Morgen
00:00
18°
1014.8 hPa
27%
16.2°
2
Windvlaag: 5.3 m/s
14%
01:00
17°
1014.8 hPa
33%
16.3°
2
Windvlaag: 4.8 m/s
79%
02:00
17°
1014.6 hPa
25%
16.2°
2
Windvlaag: 6.3 m/s
34%
03:00
16°
1014.7 hPa
82%
15.4°
3
Windvlaag: 4.8 m/s
19% warningclass
04:00
16°
1014.4 hPa
81%
15.1°
2
Windvlaag: 0.1 m/s
4%
05:00
16°
1014.4 hPa
25%
14.6°
3
Windvlaag: 2 m/s
7%
06:00
16°
1014.7 hPa
22%
14.8°
4
Windvlaag: 1.7 m/s
9%
07:00
16°
1014.8 hPa
29%
15.2°
4
Windvlaag: 1.7 m/s
9%
08:00
17°
1015.0 hPa
65%
14.9°
4
Windvlaag: 2.4 m/s
29%
09:00
17°
1015.1 hPa
30%
13.5°
5
Windvlaag: 2.7 m/s
22%
10:00
18°
1015.1 hPa
29%
11.7°
5
Windvlaag: 2.5 m/s
20%
11:00
19°
1015.3 hPa
17%
10.5°
5
Windvlaag: 2.1 m/s
29%
12:00
19°
1015.2 hPa
19%
10.1°
5
Windvlaag: 3.8 m/s
43%
13:00
20°
1015.0 hPa
28%
9.9°
4
Windvlaag: 3.7 m/s
68%
14:00
20°
1014.7 hPa
26%
10.2°
5
Windvlaag: 4 m/s
48%
15:00
20°
1014.8 hPa
81%
10.6°
5
Windvlaag: 5.2 m/s
35%
16:00
20°
1014.7 hPa
82%
11.4°
6
Windvlaag: 5.6 m/s
36%
17:00
20°
1014.3 hPa
80%
11.2°
6
Windvlaag: 4.3 m/s
38%
18:00
20°
1014.2 hPa
33%
11.1°
6
Windvlaag: 4 m/s
19%
19:00
19°
1014.1 hPa
66%
10.1°
6
Windvlaag: 2.8 m/s
17%
20:00
19°
1014.3 hPa
16%
9.3°
5
Windvlaag: 2.3 m/s
37%
21:00
18°
1014.5 hPa
18%
9.4°
5
Windvlaag: 2 m/s
13%
22:00
18°
1014.8 hPa
16%
10.2°
4
Windvlaag: 2.5 m/s
8%
23:00
17°
1014.9 hPa
14%
10.4°
5
Windvlaag: 2.3 m/s
10%
 04:36     21:54    Daglengte: 17:18 Dinsdag 05 Jul
00:00
17°
1015.2 hPa
15%
10.5°
5
Windvlaag: 3.7 m/s
12%
01:00
16°
1015.2 hPa
14%
10.4°
5
Windvlaag: 4.7 m/s
14%
02:00
15°
1015.2 hPa
22%
10.3°
6
Windvlaag: 4.5 m/s
5%
03:00
15°
1015.1 hPa
27%
10.3°
6
Windvlaag: 4.4 m/s
6%
04:00
15°
1015.2 hPa
20%
10.5°
5
Windvlaag: 4.6 m/s
9%
05:00
13°
1015.3 hPa
25%
10.9°
5
Windvlaag: 4.9 m/s
22%
06:00
14°
1015.6 hPa
23%
10.7°
5
Windvlaag: 6.3 m/s
32%
07:00
15°
1015.6 hPa
21%
10.6°
6
Windvlaag: 6.5 m/s
68%
08:00
16°
1015.6 hPa
35%
10.9°
6
Windvlaag: 5.9 m/s
32%
09:00
16°
1015.7 hPa
89%
11.0°
6
Windvlaag: 5.6 m/s
67%
10:00
17°
1015.8 hPa
94%
11.1°
6
Windvlaag: 4.9 m/s
60%
11:00
18°
1015.9 hPa
99%
9.2°
6
Windvlaag: 4.2 m/s
66%
12:00
18°
1016.0 hPa
95%
8.6°
6
Windvlaag: 4.1 m/s
52%
13:00
19°
1015.9 hPa
49%
8.6°
6
Windvlaag: 3.7 m/s
44%
14:00
19°
1015.8 hPa
35%
9.5°
6
Windvlaag: 4.8 m/s
39%
15:00
19°
1015.8 hPa
75%
11.8°
6
Windvlaag: 4.4 m/s
33%
16:00
19°
1015.8 hPa
38%
11.6°
6
Windvlaag: 3.2 m/s
32%
17:00
19°
1015.8 hPa
37%
12.5°
7
Windvlaag: 2.2 m/s
38%
18:00
19°
1015.9 hPa
35%
11.4°
6
Windvlaag: 1.7 m/s
42%
19:00
19°
1015.7 hPa
25%
10.4°
7
Windvlaag: 2 m/s
36%
20:00
18°
1015.8 hPa
24%
8.9°
6
Windvlaag: 0.6 m/s
29%
21:00
17°
1016.0 hPa
24%
11.4°
6
Windvlaag: 0.1 m/s
39%
22:00
16°
1016.2 hPa
29%
11.4°
4
Windvlaag: -0.5 m/s
45%
23:00
15°
1016.3 hPa
25%
10.2°
5
Windvlaag: 1.4 m/s
28%
 04:37     21:53    Daglengte: 17:16 Woensdag 06 Jul
00:00
14°
1016.3 hPa
21%
8.9°
4
Windvlaag: 10.4 m/s
10%
01:00
13°
1016.4 hPa
22%
9.0°
4
Windvlaag: 10.7 m/s
11%
02:00
13°
1016.4 hPa
22%
9.3°
4
Windvlaag: 10.4 m/s
17%
03:00
12°
1016.3 hPa
25%
9.2°
4
Windvlaag: 10.5 m/s
17%
04:00
12°
1016.5 hPa
22%
9.7°
4
Windvlaag: 10 m/s
19%
05:00
12°
1016.4 hPa
25%
9.5°
4
Windvlaag: 5.8 m/s
20%
06:00
12°
1016.4 hPa
27%
8.9°
4
Windvlaag: 11.1 m/s
14%
07:00
13°
1016.4 hPa
30%
8.7°
5
Windvlaag: 11 m/s
18%
08:00
14°
1016.5 hPa
67%
8.1°
5
Windvlaag: 9.7 m/s
18%
Temp/Neerslag /Baro Onweer/Dauwpunt
    Temp Baro Neerslag Dauwpunt Wind Bewolking  
 04:34     21:55    Daglengte: 17:21 Vandaag
11:00
20°
1017.8 hPa   13.7°
7
73%
14:00
22°
1016.9 hPa   13.0°
8
14%
17:00
22°
1015.7 hPa   13.7°
7
28%
20:00
20°
1015.3 hPa   15.5°
4
33%
23:00
18°
1015.3 hPa   16.3°
2
7%
 04:35     21:55    Daglengte: 17:20 Morgen
02:00
17°
1014.6 hPa   16.2°
2
34%
05:00
16°
1014.4 hPa   14.6°
3
7%
08:00
17°
1015.0 hPa   14.9°
4
29%
11:00
19°
1015.3 hPa   10.5°
5
29%
14:00
20°
1014.7 hPa   10.2°
5
48%
17:00
20°
1014.3 hPa   11.2°
6
38%
20:00
19°
1014.3 hPa   9.3°
5
37%
23:00
17°
1014.9 hPa   10.4°
5
10%
 04:36     21:54    Daglengte: 17:18 Dinsdag 05 Jul
02:00
15°
1015.2 hPa   10.3°
6
5%
05:00
13°
1015.3 hPa   10.9°
5
22%
08:00
16°
1015.6 hPa   10.9°
6
32%
11:00
18°
1015.9 hPa   9.2°
6
66%
14:00
19°
1015.8 hPa   9.5°
6
39%
17:00
19°
1015.8 hPa   12.5°
7
38%
20:00
18°
1015.8 hPa   8.9°
6
29%
23:00
15°
1016.3 hPa   10.2°
5
28%
 04:37     21:53    Daglengte: 17:16 Woensdag 06 Jul
02:00
13°
1016.4 hPa   9.3°
4
17%
05:00
12°
1016.4 hPa   9.5°
4
20%
08:00
14°
1016.5 hPa   8.1°
5
18%
11:00
15°
1017.1 hPa 6.9 mm -12.9°
8
17%
14:00
17°
1017.1 hPa 6.9 mm -12.1°
8
24%
17:00
18°
1017.1 hPa 6.9 mm -13.5°
8
23%
20:00
17°
1017.0 hPa 6.9 mm -9.4°
7
25%
23:00
15°
1016.5 hPa 3.7 mm -9.8°
6
25%
 04:38     21:53    Daglengte: 17:15 Donderdag 07 Jul
02:00
13°
1014.6 hPa 3.9 mm -8.5°
6
26%
05:00
14°
1012.8 hPa 4.2 mm -7.0°
5
26%
08:00
14°
1011.8 hPa 5.3 mm -6.6°
4
26%
11:00
15°
1011.0 hPa 5.8 mm -6.3°
2
26%
14:00
16°
1011.1 hPa 5.9 mm -6.6°
3
24%
17:00
18°
1012.1 hPa 6.4 mm -5.9°
4
14%
20:00
18°
1013.2 hPa 6.2 mm -7.0°
5
12%
23:00
15°
1015.2 hPa 12.0 mm -7.3°
3
0%
 04:40     21:52    Daglengte: 17:12 Vrijdag 08 Jul
02:00
13°
1016.2 hPa 12.0 mm -7.5°
2
4%
05:00
13°
1017.3 hPa 12.0 mm -8.0°
1
13%
08:00
16°
1018.7 hPa 12.0 mm -7.3°
1
23%
11:00
18°
1018.8 hPa 12.3 mm -9.9°
4
25%
14:00
21°
1017.9 hPa 12.3 mm -10.6°
5
17%
17:00
21°
1017.0 hPa 12.3 mm -9.4°
6
11%
20:00
19°
1016.9 hPa 6.4 mm -6.6°
6
24%
23:00
16°
1017.0 hPa 12.8 mm -9.8°
6
21%
 04:41     21:51    Daglengte: 17:10 Zaterdag 09 Jul
02:00
14°
1016.0 hPa 12.9 mm -9.2°
5
22%
05:00
14°
1015.9 hPa 6.7 mm -9.0°
4
25%
08:00
17°
1016.1 hPa 13.3 mm 10.0°
3
1%
11:00
19°
1016.3 hPa 13.3 mm 7.7°
2
0%
14:00
20°
1016.7 hPa 13.3 mm 8.8°
1
1%
17:00
20°
1017.1 hPa 13.3 mm 9.6°
1
1%
20:00
19°
1018.1 hPa 13.3 mm 11.2°
3
1%
23:00
16°
1018.6 hPa 13.3 mm 13.0°
2
1%
 04:42     21:50    Daglengte: 17:08 Zondag 10 Jul
02:00
16°
1019.4 hPa 13.3 mm 12.9°
2
0%
05:00
15°
1020.6 hPa 13.3 mm 13.1°
3
0%
08:00
17°
1022.0 hPa 26.7 mm 11.9°
3
0%
14:00
24°
1022.8 hPa 26.7 mm 7.2°
1
0%
20:00
21°
1023.7 hPa 26.8 mm 10.7°
4
1%
 04:43     21:49    Daglengte: 17:06 Maandag 11 Jul
02:00
17°
1024.7 hPa 26.8 mm 11.7°
2
1%
08:00
19°
1025.4 hPa 26.8 mm 8.3°
3
1%
14:00
23°
1025.1 hPa 26.8 mm 6.8°
4
1%
20:00
20°
1024.6 hPa 26.8 mm 11.4°
4
1%
 04:45     21:48    Daglengte: 17:03 Dinsdag 12 Jul
02:00
18°
1024.8 hPa 26.8 mm 12.3°
3
1%
08:00
20°
1024.8 hPa 26.8 mm 11.9°
3
1%
14:00
25°
1023.3 hPa 26.8 mm 8.8°
3
0%
20:00
23°
1022.0 hPa 26.8 mm 11.2°
3
0%
 04:46     21:46    Daglengte: 17:00 Woensdag 13 Jul
02:00
18°
1020.9 hPa 26.8 mm 12.8°
4
1%
08:00
17°
1015.8 hPa 0.3 mm 12.4°
4
62%
14:00
20°
1015.6 hPa 0.5 mm 12.2°
4
57%
20:00
19°
1015.0 hPa 0.4 mm 13.0°
3
51%
 04:47     21:45    Daglengte: 16:58 Donderdag 14 Jul
02:00
16°
1015.0 hPa 0.4 mm 12.9°
4
54%
08:00
17°
1014.9 hPa 0.6 mm 12.6°
3
58%
14:00
20°
1015.0 hPa 0.4 mm 12.4°
3
47%
20:00
19°
1014.6 hPa 0.4 mm 13.0°
3
44%
 04:49     21:44    Daglengte: 16:55 Vrijdag 15 Jul
02:00
16°
1014.8 hPa 0.1 mm 12.2°
3
44%
08:00
17°
1014.9 hPa 0.4 mm 12.4°
2
51%
14:00
20°
1014.8 hPa 0.4 mm 12.7°
2
40%
20:00
20°
1014.1 hPa 0.4 mm 13.2°
1
42%
 04:50     21:43    Daglengte: 16:53 Zaterdag 16 Jul
02:00
17°
1014.2 hPa 0.4 mm 12.6°
1
34%
08:00
18°
1013.7 hPa 0.7 mm 13.1°
1
41%
14:00
21°
1013.0 hPa 0.8 mm 13.5°
2
43%
20:00
20°
1012.3 hPa 0.6 mm 13.6°
2
44%
 04:52     21:41    Daglengte: 16:49 Zondag 17 Jul
02:00
17°
1012.5 hPa 0.3 mm 12.9°
1
49%
08:00
17°
1012.2 hPa 0.3 mm 13.0°
1
49%
14:00
20°
1012.1 hPa 0.8 mm 13.0°
2
61%
20:00
19°
1011.7 hPa 0.8 mm 13.5°
3
51%
 04:53     21:40    Daglengte: 16:47 Maandag 18 Jul
02:00
16°
1012.4 hPa 0.9 mm 12.7°
3
48%
08:00
17°
1012.7 hPa 0.3 mm 12.6°
3
50%
  CAPE Lifted Index Hail Supercell Tornado SRH 3km CL BTM PRES CL TOP PRES Swiss DWD icon SMHI TS
 04:34     21:55    Daglengte: 17:21 Vandaag
09:00 42 J/kg 1.1 K 0 % 0 % 0 % 0 m²/s² 0 0 2.27 3
10:00 44 J/kg 1.2 K 0 % 0 % 0 % 0 m²/s² 0 0 2.04 2
11:00 29 J/kg 1.4 K 0 % 0 % 0 % 0 m²/s² 0 0 2.06 3
12:00 52 J/kg 1.0 K 0 % 0 % 0 % 0 m²/s² 0 0 1.84 3
13:00 98 J/kg 0.5 K 0 % 0 % 0 % 0 m²/s² 0 0 1.43 2
14:00 191 J/kg -0.3 K 0 % 0 % 0 % 0 m²/s² 0 0 0.69 1
15:00 289 J/kg -0.8 K 0 % 0 % 0 % 0 m²/s² 0 0 0.64 2
16:00 297 J/kg -0.9 K 0 % 0 % 0 % 0 m²/s² 0 0 0.78 2
17:00 251 J/kg -0.8 K 0 % 0 % 0 % 0 m²/s² 0 0 1.12 2
18:00 194 J/kg -0.3 K 0 % 0 % 0 % 0 m²/s² 0 0 0.99 2
19:00 188 J/kg -0.8 K 0 % 0 % 0 % 0 m²/s² 0 0 0.34 2
20:00 199 J/kg -0.7 K 0 % 0 % 0 % 0 m²/s² 0 0 0.53 2
21:00 250 J/kg -1.1 K 0 % 0 % 0 % 0 m²/s² 0 0 -0.02 3
22:00 271 J/kg -1.5 K 0 % 0 % 0 % 0 m²/s² 0 0 -0.27 3
23:00 329 J/kg -2.0 K 0 % 0 % 0 % 0 m²/s² 0 0 -0.35 2
 04:35     21:55    Daglengte: 17:20 Morgen
00:00 425 J/kg -2.4 K 0 % 0 % 0 % 0 m²/s² 0 0 -1.02 2
01:00 570 J/kg -2.9 K 0 % 0 % 0 % 0 m²/s² 0 0 -1.64 3
02:00 280 J/kg -1.4 K 0 % 0 % 0 % 0 m²/s² 0 0 -1.07 2
03:00 0 J/kg 2.9 K 0 % 0 % 0 % 0 m²/s² 0 0 3.14 95
04:00 0 J/kg 2.4 K 0 % 0 % 0 % 0 m²/s² 0 0 4.35 80
05:00 0 J/kg -2.2 K 0 % 0 % 0 % 0 m²/s² 0 0 1.01 2
06:00 313 J/kg -2.7 K 0 % 0 % 0 % 0 m²/s² 0 0 1.26 2
07:00 603 J/kg -2.6 K 0 % 0 % 0 % 0 m²/s² 0 0 1.45 2
08:00 222 J/kg -0.6 K 0 % 0 % 0 % 0 m²/s² 0 0 4.02 2
09:00 60 J/kg 0.9 K 0 % 0 % 0 % 0 m²/s² 0 0 5.31 2
10:00 27 J/kg 2.7 K 0 % 0 % 0 % 0 m²/s² 0 0 6.48 2
11:00 21 J/kg 3.6 K 0 % 0 % 0 % 0 m²/s² 0 0 6.57 2
12:00 39 J/kg 3.3 K 0 % 0 % 0 % 0 m²/s² 0 0 6.09 3
13:00 34 J/kg 3.2 K 0 % 0 % 0 % 0 m²/s² 0 0 6.41 3
14:00 103 J/kg 2.2 K 0 % 0 % 0 % 0 m²/s² 0 0 4.6 3
15:00 153 J/kg 1.8 K 0 % 0 % 0 % 0 m²/s² 0 0 4.29 3
16:00 206 J/kg 1.1 K 0 % 0 % 0 % 0 m²/s² 0 0 3.11 3
17:00 178 J/kg 1.3 K 0 % 0 % 0 % 0 m²/s² 0 0 2.77 3
18:00 310 J/kg 0.5 K 0 % 0 % 0 % 0 m²/s² 0 0 2.99 2
19:00 159 J/kg 1.9 K 0 % 0 % 0 % 0 m²/s² 0 0 4.6 2
20:00 102 J/kg 2.8 K 0 % 0 % 0 % 0 m²/s² 0 0 5.56 2
21:00 88 J/kg 3.7 K 0 % 0 % 0 % 0 m²/s² 0 0 6.61 2
22:00 82 J/kg 3.8 K 0 % 0 % 0 % 0 m²/s² 0 0 7.43 1
23:00 44 J/kg 4.6 K 0 % 0 % 0 % 0 m²/s² 0 0 8.44 1
 04:36     21:54    Daglengte: 17:18 Dinsdag 05 Jul
00:00 6 J/kg 5.7 K 0 % 0 % 0 % 0 m²/s² 0 0 9.84 1
01:00 4 J/kg 6.5 K 0 % 0 % 0 % 0 m²/s² 0 0 10.04 1
02:00 3 J/kg 7.5 K 0 % 0 % 0 % 0 m²/s² 0 0 10.62 1
03:00 1 J/kg 7.8 K 0 % 0 % 0 % 0 m²/s² 0 0 10.53 2
04:00 15 J/kg 7.9 K 0 % 0 % 0 % 0 m²/s² 0 0 10.93 1
05:00 4 J/kg 8.1 K 0 % 0 % 0 % 0 m²/s² 0 0 11.22 1
06:00 14 J/kg 7.6 K 0 % 0 % 0 % 0 m²/s² 0 0 10.54 2
07:00 39 J/kg 7.5 K 0 % 0 % 0 % 0 m²/s² 0 0 10.53 2
08:00 107 J/kg 6.4 K 0 % 0 % 0 % 0 m²/s² 0 0 9.67 2
09:00 166 J/kg 5.8 K 0 % 0 % 0 % 0 m²/s² 0 0 9.22 3
10:00 171 J/kg 5.7 K 0 % 0 % 0 % 0 m²/s² 0 0 9.72 3
11:00 134 J/kg 6.0 K 0 % 0 % 0 % 0 m²/s² 0 0 9.81 3
12:00 87 J/kg 6.0 K 0 % 0 % 0 % 0 m²/s² 0 0 10.02 3
13:00 83 J/kg 5.4 K 0 % 0 % 0 % 0 m²/s² 0 0 8.73 3
14:00 135 J/kg 4.1 K 0 % 0 % 0 % 0 m²/s² 0 0 7.1 2
15:00 183 J/kg 2.9 K 0 % 0 % 0 % 0 m²/s² 0 0 6.23 2
16:00 146 J/kg 2.9 K 0 % 0 % 0 % 0 m²/s² 0 0 6.53 2
17:00 151 J/kg 2.3 K 0 % 0 % 0 % 0 m²/s² 0 0 5.21 2
18:00 169 J/kg 1.8 K 0 % 0 % 0 % 0 m²/s² 0 0 5.61 2
19:00 113 J/kg 2.4 K 0 % 0 % 0 % 0 m²/s² 0 0 7.05 1
20:00 70 J/kg 3.1 K 0 % 0 % 0 % 0 m²/s² 0 0 7.63 1
21:00 159 J/kg 2.0 K 0 % 0 % 0 % 0 m²/s² 0 0 5.18 1
22:00 133 J/kg 2.9 K 0 % 0 % 0 % 0 m²/s² 0 0 5.09 1
23:00 83 J/kg 4.0 K 0 % 0 % 0 % 0 m²/s² 0 0 5.62 1
 04:37     21:53    Daglengte: 17:16 Woensdag 06 Jul
00:00 26 J/kg 5.4 K 0 % 0 % 0 % 0 m²/s² 0 0 7.14 0
01:00 29 J/kg 5.6 K 0 % 0 % 0 % 0 m²/s² 0 0 7.73 0
02:00 35 J/kg 5.7 K 0 % 0 % 0 % 0 m²/s² 0 0 8.01 1
03:00 41 J/kg 5.9 K 0 % 0 % 0 % 0 m²/s² 0 0 7.58 2
04:00 51 J/kg 5.5 K 0 % 0 % 0 % 0 m²/s² 0 0 9.52 2
05:00 74 J/kg 5.4 K 0 % 0 % 0 % 0 m²/s² 0 0 10.56 1
06:00 85 J/kg 6.2 K 0 % 0 % 0 % 0 m²/s² 0 0 11.51 2
07:00 81 J/kg 6.7 K 0 % 0 % 0 % 0 m²/s² 0 0 12.16 2
08:00 62 J/kg 7.1 K 0 % 0 % 0 % 0 m²/s² 0 0 12.71 2
Temp Baro Wind Neerslag
  EWN Forecast EWN WRFDA DWD ICON FMI HIRLAM MET Norway GFSWXSIM
 04:34     21:55    Daglengte: 17:21 Vandaag
11:00 20.2° 1017.8 hPa 6.6 m/s 0.0 mm 20.4° 1016.9 hPa 5.8 m/s 0.0 mm 20.3° 1017.8 hPa 4.9 m/s -2.0 mm 20.4° 1017.9 hPa 6.7 m/s 0.0 mm 20.2° 1017.8 hPa 5.1 m/s 21.0° 1018.0 hPa 5.0 m/s 0.3 mm
14:00 22.4° 1016.9 hPa 7.7 m/s 0.0 mm 23.1° 1015.8 hPa 7.8 m/s 0.0 mm 23.2° 1016.7 hPa 5.7 m/s 0.0 mm 22.3° 1017.3 hPa 7.7 m/s 0.0 mm 22.5° 1016.9 hPa 5.6 m/s 24.3° 1017.0 hPa 5.0 m/s 0.0 mm
17:00 22.0° 1015.7 hPa 7.4 m/s 0.0 mm 23.4° 1014.4 hPa 7.6 m/s 0.0 mm 22.5° 1015.8 hPa 5.2 m/s 0.0 mm 21.8° 1016.1 hPa 7.3 m/s 0.0 mm 21.5° 1016.0 hPa 4.9 m/s 22.7° 1016.0 hPa 4.0 m/s 0.7 mm
20:00 20.4° 1015.3 hPa 4.0 m/s 0.0 mm 21.1° 1014.1 hPa 3.8 m/s 0.5 mm 20.9° 1014.9 hPa 2.2 m/s 0.1 mm 20.3° 1015.8 hPa 3.6 m/s 0.0 mm 20.0° 1015.4 hPa 3.0 m/s 20.3° 1016.0 hPa 2.0 m/s 1.3 mm
23:00 18.2° 1015.3 hPa 2.0 m/s 0.0 mm 18.2° 1013.9 hPa 1.2 m/s 1.6 mm 18.2° 1014.9 hPa 1.6 m/s 0.1 mm 18.3° 1015.8 hPa 1.5 m/s 0.0 mm 17.9° 1014.8 hPa 2.3 m/s 17.1° 1015.0 hPa 1.0 m/s 0.5 mm
 04:35     21:55    Daglengte: 17:20 Morgen
02:00 17.0° 1014.6 hPa 2.4 m/s 0.0 mm 17.6° 1013.4 hPa 5.4 m/s 1.9 mm 16.7° 1014.3 hPa 1.2 m/s 0.0 mm 16.8° 1015.5 hPa 1.9 m/s 0.0 mm 16.6° 1014.2 hPa 2.2 m/s 16.1° 1014.0 hPa 2.0 m/s 0.8 mm
05:00 15.9° 1014.4 hPa 3.4 m/s 0.0 mm 14.6° 1012.6 hPa 3.5 m/s 7.8 mm 15.4° 1014.6 hPa 2.4 m/s 2.5 mm 16.6° 1014.8 hPa 3.5 m/s 0.0 mm 14.5° 1014.2 hPa 3.1 m/s 15.8° 1014.0 hPa 3.0 m/s 0.5 mm
08:00 16.7° 1015.0 hPa 4.0 m/s 0.0 mm 17.3° 1013.4 hPa 5.3 m/s 9.3 mm 16.6° 1015.1 hPa 2.9 m/s 0.0 mm 17.0° 1015.5 hPa 5.3 m/s 0.0 mm 17.4° 1014.8 hPa 3.1 m/s 17.8° 1015.0 hPa 4.0 m/s 0.0 mm
11:00 18.5° 1015.3 hPa 4.5 m/s 0.0 mm 19.2° 1013.8 hPa 5.1 m/s 9.3 mm 18.3° 1015.6 hPa 3.4 m/s 0.0 mm 19.4° 1015.8 hPa 4.8 m/s 0.0 mm 20.1° 1014.7 hPa 3.4 m/s 22.3° 1015.0 hPa 4.0 m/s 0.0 mm
14:00 20.0° 1014.7 hPa 5.2 m/s 0.0 mm 20.6° 1013.5 hPa 4.1 m/s 9.3 mm 20.6° 1014.7 hPa 3.9 m/s 0.0 mm 19.5° 1015.7 hPa 5.5 m/s 0.0 mm 21.5° 1014.2 hPa 4.7 m/s 23.8° 1014.0 hPa 5.0 m/s 0.0 mm
17:00 19.9° 1014.3 hPa 6.0 m/s 0.0 mm 18.4° 1013.3 hPa 6.5 m/s 10.0 mm 20.3° 1014.3 hPa 4.6 m/s 0.1 mm 19.3° 1015.0 hPa 6.0 m/s 0.0 mm 19.9° 1014.5 hPa 6.6 m/s 24.4° 1014.0 hPa 6.0 m/s 0.0 mm
20:00 18.9° 1014.3 hPa 5.3 m/s 0.0 mm 19.5° 1013.2 hPa 6.2 m/s 11.2 mm 18.7° 1014.4 hPa 4.0 m/s 0.0 mm 18.7° 1014.9 hPa 5.5 m/s 0.0 mm 18.5° 1014.5 hPa 5.9 m/s 21.2° 1015.0 hPa 6.0 m/s 0.2 mm
23:00 17.3° 1014.9 hPa 4.7 m/s 0.0 mm 16.9° 1013.9 hPa 4.2 m/s 11.2 mm 15.5° 1015.0 hPa 2.6 m/s 0.0 mm 17.6° 1015.3 hPa 5.0 m/s 0.0 mm 15.3° 1015.5 hPa 5.5 m/s 17.1° 1015.0 hPa 6.0 m/s 0.0 mm
 04:36     21:54    Daglengte: 17:18 Dinsdag 05 Jul
02:00 15.5° 1015.2 hPa 6.1 m/s 0.0 mm 14.7° 1014.0 hPa 6.5 m/s 11.2 mm 13.4° 1015.6 hPa 3.0 m/s 0.0 mm 15.9° 1015.2 hPa 6.8 m/s 0.0 mm 13.6° 1015.8 hPa 5.3 m/s 15.1° 1015.0 hPa 6.0 m/s 0.0 mm
05:00 13.2° 1015.3 hPa 4.8 m/s 0.0 mm 12.8° 1014.4 hPa 4.9 m/s 11.2 mm 12.5° 1015.7 hPa 3.3 m/s 0.0 mm 12.9° 1015.9 hPa 5.5 m/s 14.4° 1015.0 hPa 6.0 m/s 0.0 mm
08:00 15.6° 1015.6 hPa 6.1 m/s 0.0 mm 15.9° 1014.8 hPa 6.4 m/s 11.2 mm 14.8° 1016.1 hPa 4.1 m/s 0.0 mm 15.9° 1016.4 hPa 6.2 m/s 16.6° 1016.0 hPa 7.0 m/s 0.0 mm
11:00 17.7° 1015.9 hPa 5.8 m/s 0.0 mm 18.4° 1015.4 hPa 5.8 m/s 11.2 mm 17.4° 1016.1 hPa 4.6 m/s 0.0 mm 17.2° 1016.5 hPa 7.0 m/s 18.9° 1017.0 hPa 8.0 m/s 0.5 mm
14:00 19.0° 1015.8 hPa 5.9 m/s 0.0 mm 19.4° 1015.0 hPa 5.7 m/s 11.2 mm 19.0° 1016.1 hPa 5.5 m/s 0.0 mm 18.8° 1016.5 hPa 6.7 m/s 19.4° 1016.0 hPa 7.0 m/s 0.5 mm
17:00 18.9° 1015.8 hPa 6.6 m/s 0.0 mm 18.1° 1015.0 hPa 6.7 m/s 12.0 mm 19.0° 1016.1 hPa 5.5 m/s 0.0 mm 19.5° 1016.6 hPa 7.1 m/s 18.8° 1016.0 hPa 7.0 m/s 0.3 mm
20:00 18.0° 1015.8 hPa 6.3 m/s 0.0 mm 18.3° 1014.4 hPa 6.6 m/s 12.2 mm 17.4° 1016.0 hPa 4.8 m/s 0.0 mm 17.3° 1016.8 hPa 5.9 m/s 16.9° 1017.0 hPa 7.0 m/s 0.2 mm
23:00 15.2° 1016.3 hPa 4.7 m/s 0.0 mm 15.0° 1015.3 hPa 4.9 m/s 12.2 mm 14.5° 1016.5 hPa 3.1 m/s 0.0 mm 14.7° 1017.2 hPa 4.6 m/s 13.2° 1017.0 hPa 6.0 m/s 0.0 mm
 04:37     21:53    Daglengte: 17:16 Woensdag 06 Jul
02:00 12.6° 1016.4 hPa 3.7 m/s 0.0 mm 13.0° 1015.1 hPa 6.1 m/s 12.2 mm 12.5° 1016.7 hPa 3.1 m/s 0.0 mm 13.5° 1017.1 hPa 5.1 m/s 11.3° 1017.0 hPa 6.0 m/s 0.0 mm
05:00 12.1° 1016.4 hPa 3.5 m/s 0.0 mm 12.6° 1015.5 hPa 4.5 m/s 12.2 mm 12.0° 1016.6 hPa 3.3 m/s 0.0 mm 12.5° 1016.9 hPa 5.1 m/s 10.5° 1017.0 hPa 6.0 m/s 0.3 mm
08:00 14.3° 1016.5 hPa 5.1 m/s 0.0 mm 14.7° 1015.9 hPa 7.1 m/s 12.5 mm 14.2° 1016.7 hPa 4.6 m/s 0.0 mm 14.6° 1017.1 hPa 6.3 m/s 11.9° 1017.0 hPa 7.0 m/s 0.0 mm
11:00 14.9° 1017.1 hPa 7.8 m/s 6.9 mm 15.7° 1017.4 hPa 7.8 m/s 6.9 mm 14.6° 1017.0 hPa 8.0 m/s 0.0 mm
14:00 16.8° 1017.1 hPa 8.1 m/s 6.9 mm 16.7° 1017.4 hPa 7.8 m/s 6.9 mm 17.2° 1017.0 hPa 9.0 m/s 0.0 mm
17:00 17.8° 1017.1 hPa 8.5 m/s 6.9 mm 18.7° 1017.3 hPa 8.3 m/s 6.9 mm 17.5° 1017.0 hPa 9.0 m/s 0.0 mm
20:00 16.6° 1017.0 hPa 7.2 m/s 6.9 mm 16.7° 1017.2 hPa 6.9 m/s 6.9 mm 16.5° 1017.0 hPa 8.0 m/s 0.0 mm
23:00 14.5° 1016.5 hPa 6.0 m/s 3.7 mm 15.8° 1016.4 hPa 5.7 m/s 7.2 mm 14.1° 1017.0 hPa 7.0 m/s 0.3 mm
 04:38     21:53    Daglengte: 17:15 Donderdag 07 Jul
02:00 13.5° 1014.6 hPa 6.4 m/s 3.9 mm 15.5° 1014.5 hPa 6.2 m/s 7.4 mm 12.8° 1015.0 hPa 7.0 m/s 0.5 mm
05:00 13.7° 1012.8 hPa 5.0 m/s 4.2 mm 15.0° 1012.8 hPa 4.7 m/s 7.8 mm 13.3° 1013.0 hPa 6.0 m/s 0.5 mm
08:00 13.9° 1011.8 hPa 3.8 m/s 5.3 mm 14.8° 1011.7 hPa 3.7 m/s 8.8 mm 13.6° 1012.0 hPa 4.0 m/s 1.7 mm
11:00 14.5° 1011.0 hPa 2.4 m/s 5.8 mm 15.5° 1011.1 hPa 2.2 m/s 9.6 mm 14.2° 1011.0 hPa 3.0 m/s 2.1 mm
14:00 15.9° 1011.1 hPa 2.8 m/s 5.9 mm 16.7° 1011.4 hPa 2.8 m/s 10.1 mm 15.6° 1011.0 hPa 3.0 m/s 1.8 mm
17:00 18.0° 1012.1 hPa 4.1 m/s 6.4 mm 18.4° 1012.4 hPa 4.4 m/s 11.8 mm 17.8° 1012.0 hPa 4.0 m/s 1.0 mm
20:00 18.1° 1013.2 hPa 4.6 m/s 6.2 mm 18.1° 1013.7 hPa 4.5 m/s 12.0 mm 18.2° 1013.0 hPa 5.0 m/s 0.5 mm
23:00 15.1° 1015.2 hPa 2.6 m/s 12.0 mm 15.5° 1015.7 hPa 2.5 m/s 12.0 mm 14.9° 1015.0 hPa 3.0 m/s 0.0 mm
 04:40     21:52    Daglengte: 17:12 Vrijdag 08 Jul
02:00 13.5° 1016.2 hPa 1.8 m/s 12.0 mm 14.7° 1017.0 hPa 1.8 m/s 12.0 mm 13.1° 1016.0 hPa 2.0 m/s 0.0 mm
05:00 12.6° 1017.3 hPa 0.6 m/s 12.0 mm 14.0° 1018.2 hPa 0.4 m/s 12.0 mm 12.2° 1017.0 hPa 1.0 m/s 0.0 mm
08:00 16.3° 1018.7 hPa 1.4 m/s 12.0 mm 16.9° 1018.6 hPa 1.3 m/s 12.0 mm 16.1° 1019.0 hPa 2.0 m/s 0.0 mm
11:00 18.4° 1018.8 hPa 4.0 m/s 12.3 mm 19.4° 1018.7 hPa 4.0 m/s 12.3 mm 18.1° 1019.0 hPa 4.0 m/s 0.0 mm
14:00 20.5° 1017.9 hPa 4.9 m/s 12.3 mm 20.8° 1017.9 hPa 4.8 m/s 12.3 mm 20.4° 1018.0 hPa 5.0 m/s 0.0 mm
17:00 21.3° 1017.0 hPa 6.0 m/s 12.3 mm 21.1° 1017.0 hPa 6.0 m/s 12.3 mm 21.7° 1017.0 hPa 6.0 m/s 0.0 mm
20:00 18.6° 1016.9 hPa 6.3 m/s 6.4 mm 18.3° 1016.8 hPa 6.1 m/s 12.6 mm 19.4° 1017.0 hPa 7.0 m/s 0.2 mm
23:00 16.1° 1017.0 hPa 6.4 m/s 12.8 mm 16.0° 1016.9 hPa 6.2 m/s 12.8 mm 16.3° 1017.0 hPa 7.0 m/s 0.0 mm
 04:41     21:51    Daglengte: 17:10 Zaterdag 09 Jul
02:00 14.4° 1016.0 hPa 4.9 m/s 12.9 mm 15.1° 1016.2 hPa 4.5 m/s 12.9 mm 14.1° 1016.0 hPa 6.0 m/s 0.0 mm
05:00 13.8° 1015.9 hPa 4.1 m/s 6.7 mm 14.6° 1015.9 hPa 3.8 m/s 13.1 mm 13.5° 1016.0 hPa 5.0 m/s 0.3 mm
08:00 16.5° 1016.1 hPa 3.4 m/s 13.3 mm 16.5° 1016.1 hPa 3.4 m/s 13.3 mm
11:00 19.3° 1016.3 hPa 1.9 m/s 13.3 mm 19.3° 1016.3 hPa 1.9 m/s 13.3 mm
14:00 19.8° 1016.7 hPa 1.4 m/s 13.3 mm 19.8° 1016.7 hPa 1.4 m/s 13.3 mm
17:00 20.3° 1017.1 hPa 0.9 m/s 13.3 mm 20.3° 1017.1 hPa 0.9 m/s 13.3 mm
20:00 19.0° 1018.1 hPa 3.5 m/s 13.3 mm 19.0° 1018.1 hPa 3.5 m/s 13.3 mm
23:00 16.2° 1018.6 hPa 2.4 m/s 13.3 mm 16.2° 1018.6 hPa 2.4 m/s 13.3 mm
 04:42     21:50    Daglengte: 17:08 Zondag 10 Jul
02:00 15.6° 1019.4 hPa 2.3 m/s 13.3 mm 15.6° 1019.4 hPa 2.3 m/s 13.3 mm
05:00 14.9° 1020.6 hPa 3.5 m/s 13.3 mm 14.9° 1020.6 hPa 3.5 m/s 13.3 mm
08:00 17.4° 1022.0 hPa 3.2 m/s 13.3 mm 17.4° 1022.0 hPa 3.2 m/s 13.3 mm
14:00 23.7° 1022.8 hPa 1.0 m/s 13.3 mm 23.7° 1022.8 hPa 1.0 m/s 13.3 mm
20:00 20.6° 1023.7 hPa 3.8 m/s 13.4 mm 20.6° 1023.7 hPa 3.8 m/s 13.4 mm
 04:43     21:49    Daglengte: 17:06 Maandag 11 Jul
02:00 17.0° 1024.7 hPa 2.4 m/s 13.4 mm 17.0° 1024.7 hPa 2.4 m/s 13.4 mm
08:00 19.2° 1025.4 hPa 2.9 m/s 13.4 mm 19.2° 1025.4 hPa 2.9 m/s 13.4 mm
14:00 22.7° 1025.1 hPa 4.3 m/s 13.4 mm 22.7° 1025.1 hPa 4.3 m/s 13.4 mm
20:00 20.4° 1024.6 hPa 3.9 m/s 13.4 mm 20.4° 1024.6 hPa 3.9 m/s 13.4 mm
 04:45     21:48    Daglengte: 17:03 Dinsdag 12 Jul
02:00 17.6° 1024.8 hPa 2.9 m/s 13.4 mm 17.6° 1024.8 hPa 2.9 m/s 13.4 mm
08:00 19.8° 1024.8 hPa 3.1 m/s 13.4 mm 19.8° 1024.8 hPa 3.1 m/s 13.4 mm
14:00 24.5° 1023.3 hPa 2.8 m/s 13.4 mm 24.5° 1023.3 hPa 2.8 m/s 13.4 mm
20:00 22.7° 1022.0 hPa 3.0 m/s 13.4 mm 22.7° 1022.0 hPa 3.0 m/s 13.4 mm
 04:46     21:46    Daglengte: 17:00 Woensdag 13 Jul
02:00 18.5° 1020.9 hPa 3.8 m/s 13.4 mm 18.5° 1020.9 hPa 3.8 m/s 13.4 mm
08:00 16.8° 1015.8 hPa 4.0 m/s 0.3 mm
14:00 19.9° 1015.6 hPa 4.0 m/s 0.5 mm
20:00 19.2° 1015.0 hPa 3.2 m/s 0.4 mm
 04:47     21:45    Daglengte: 16:58 Donderdag 14 Jul
02:00 16.3° 1015.0 hPa 3.5 m/s 0.4 mm
08:00 17.2° 1014.9 hPa 3.4 m/s 0.6 mm
14:00 20.4° 1015.0 hPa 3.2 m/s 0.4 mm
20:00 19.4° 1014.6 hPa 2.9 m/s 0.4 mm
 04:49     21:44    Daglengte: 16:55 Vrijdag 15 Jul
02:00 16.2° 1014.8 hPa 2.6 m/s 0.1 mm
08:00 17.2° 1014.9 hPa 2.0 m/s 0.4 mm
14:00 20.4° 1014.8 hPa 2.2 m/s 0.4 mm
20:00 19.9° 1014.1 hPa 1.5 m/s 0.4 mm
 04:50     21:43    Daglengte: 16:53 Zaterdag 16 Jul
02:00 16.6° 1014.2 hPa 1.3 m/s 0.4 mm
08:00 17.7° 1013.7 hPa 0.8 m/s 0.7 mm
14:00 21.0° 1013.0 hPa 1.7 m/s 0.8 mm
20:00 20.0° 1012.3 hPa 1.7 m/s 0.6 mm
 04:52     21:41    Daglengte: 16:49 Zondag 17 Jul
02:00 16.7° 1012.5 hPa 1.4 m/s 0.3 mm
08:00 17.2° 1012.2 hPa 1.2 m/s 0.3 mm
14:00 20.2° 1012.1 hPa 2.2 m/s 0.8 mm
20:00 19.2° 1011.7 hPa 2.8 m/s 0.8 mm
 04:53     21:40    Daglengte: 16:47 Maandag 18 Jul
02:00 16.1° 1012.4 hPa 2.9 m/s 0.9 mm
08:00 17.0° 1012.7 hPa 2.7 m/s 0.3 mm
FMI Hirlam - 7.5 km EWN WRFDA - 12 km DWD ICON - 7 km GFS - 25 km Basiskaart






























































Updatetijd (Europe/Brussels) Resolutie Lengte Stap
FMI Hirlam 07:00, 13:00, 19:00, 01:00 7.5 km 49h 1h
EWN WRFDA 04:15, 10:15, 16:15, 22:15 12 km 73h 1h
DWD ICON 05:45, 11:45, 17:45, 23:45 7 km 75h 1h
GFS 02:15, 08:15, 14:15, 20:15 25 km 237h 3h
30+ mm
25-30 mm
20-25 mm
15-20 mm
10-15 mm
6-10 mm
4-6 mm
2-4 mm
1-2 mm
0.5-1 mm
0.2-0.5 mm
0.1-0.2 mm
30+ mm
25-30 mm
20-25 mm
15-20 mm
10-15 mm
6-10 mm
4-6 mm
2-4 mm
1-2 mm
0.5-1 mm
0.2-0.5 mm
0.1-0.2 mm
Sneeuwval
Natte sneeuw
Hagel
Vorst
30+ mm
25-30 mm
20-25 mm
15-20 mm
10-15 mm
6-10 mm
4-6 mm
2-4 mm
1-2 mm
0.5-1 mm
0.2-0.5 mm
0.1-0.2 mm
Sneeuwval
Natte sneeuw
Hagel
Vorst
Onweer
50 mm
40 mm
30 mm
26 mm
22 mm
18 mm
14 mm
10 mm
9 mm
8 mm
7 mm
6 mm
5 mm
4.5 mm
4 mm
3.5 mm
3 mm
2.5 mm
2 mm
1.5 mm
1 mm
0.8 mm
0.6 mm
0.4 mm
0.2 mm
0.05 mm
35°
30°
25°
20°
15°
10°
-5°
-10°
-15°
-20°
-25°
-30°
-35°
33> m/s
29 m/s
25 m/s
21 m/s
17 m/s
14 m/s
11 m/s
8 m/s
5 m/s
3 m/s
0 m/s
2600 J/kg
2400 J/kg
2200 J/kg
2000 J/kg
1800 J/kg
1600 J/kg
1400 J/kg
1200 J/kg
1000 J/kg
800 J/kg
600 J/kg
400 J/kg
200 J/kg
70 dBZ
65 dBZ
60 dBZ
55 dBZ
50 dBZ
45 dBZ
40 dBZ
35 dBZ
30 dBZ
25 dBZ
20 dBZ
15 dBZ
10 dBZ
5 dBZ
-1 K
-2 K
-3 K
-4 K
-5 K
-6 K
-7 K
-8 K
-9 K
950 m²/s²
900 m²/s²
850 m²/s²
800 m²/s²
750 m²/s²
700 m²/s²
650 m²/s²
600 m²/s²
550 m²/s²
500 m²/s²
450 m²/s²
400 m²/s²
350 m²/s²
300 m²/s²
250 m²/s²
200 m²/s²
150 m²/s²
100 m²/s²
46 m/s
44 m/s
42 m/s
40 m/s
38 m/s
36 m/s
34 m/s
32 m/s
30 m/s
28 m/s
26 m/s
24 m/s
22 m/s
20 m/s
16 m/s
12 m/s
8 m/s
4 m/s
30 m/s
28 m/s
26 m/s
24 m/s
22 m/s
20 m/s
18 m/s
16 m/s
14 m/s
12 m/s
10 m/s
8 m/s
6 m/s
4 m/s
2 m/s
3.0
2.8
2.6
2.4
2.2
2.0
1.8
1.6
1.4
1.2
1.0
0.8
0.6
0.4
0.2
15
14
13
12
11
10
9
8
7
6
5
4
3
2
1
90%
80%
70%
60%
50%
40%
30%
20%
10%
42
40
38
36
34
32
30
28
26
24
22
20
18
16
14
12
90+ cm
80-90 cm
70-80 cm
60-70 cm
50-60 cm
40-50 cm
30-40 cm
20-30 cm
10-20 cm